Погода в Копылове

Россия / Томская область     56°36′10″N   85°06′19″E
темп.,
°C
ветер,
м/с
пор.,
м/с
влажн.,
%
обл.,
%
осадки,
мм/ч
давл.,
гПа
погр.,
м
14 мая, пт
пт1401:00+9ссз268189 0.1 1014182
04:00+7ссз278072 0.0 1016185
07:00+7ссз4107114 0.0 1018411
10:00+10ссз5866100 0.0 10191352
13:00+13сз683687 0.0 10191702
16:00+14сз572831 0.0 10191716
19:00+14сз4730100 0.0 10201580
22:00+9зсз3743100 0.0 1022145
15 мая, сб
сб1501:00+10ююз2644100 0.0 1021181
04:00+10юз41244100 0.0 1019407
07:00+12юз51545100 0.0 1018629
10:00+15зюз61142100 0.1 1018771
13:00+20зюз6941100 0.1 10161167
16:00+25зюз71035100 0.0 10142103
19:00+23з61342100 0.0 10122272
22:00+14сз2492100 2.5 101590
16 мая, вс
вс1601:00+13с119786 3.0 101411
04:00+12св2395100 0.0 1014160
07:00+13юв229084 0.0 1013173
10:00+15ююз3587100 0.3 1011534
13:00+18зсз4971100 0.9 1009815
16:00+19ссз6868100 0.8 10101121
19:00+12св578488 0.8 1011475
22:00+9всв4884100 0.0 1013446
17 мая, пн
пн1701:00+7св378982 0.0 1014327
04:00+5ссв269519 0.0 1015206
07:00+7ссв248110 0.0 1017248
10:00+12ссв235549 0.0 1017831
13:00+16ссз2345100 0.0 10161619
16:00+15сз335199 0.0 10161365
19:00+15зсз1350100 0.0 10151131
22:00+13ююв3761100 0.0 1013191
18 мая, вт
вт1801:00+11ю41094100 4.5 1011505
04:00+12ююз41092100 0.9 1007529
07:00+12юз2793100 1.3 1005337
10:00+13сз3695100 0.8 1005462
13:00+14с4585100 0.8 1007664
16:00+13с338298 0.1 1008681
19:00+12всв2283100 0.1 1009473
22:00+10всв3590100 0.0 1008262